| time (UTC) | temp F | wind direction | speed MPH | gust MPH | rain 1hr in | rain 24hr in | rain mn in | humidity % | barometer mb |
| 20260902031611 | 75 | 88 | 0.0 | 0.0 | 0.00 | 0.00 | 0.00 | 94 | 1019.0 |
| 20260902031055 | 75 | 88 | 0.0 | 0.0 | 0.00 | 0.00 | 0.00 | 94 | 1019.1 |
| 20260902030553 | 75 | 88 | 0.0 | 0.0 | 0.00 | 0.00 | 0.00 | 94 | 1019.0 |
| 20260902030057 | 75 | 88 | 0.0 | 0.0 | 0.00 | 0.00 | 0.00 | 94 | 1019.0 |
| 20260902025553 | 75 | 88 | 0.0 | 0.0 | 0.00 | 0.00 | 0.00 | 93 | 1019.0 |
| 20260902025053 | 75 | 88 | 0.0 | 0.0 | 0.00 | 0.00 | 0.00 | 93 | 1019.0 |
| 20260902024605 | 76 | 88 | 0.0 | 0.0 | 0.00 | 0.00 | 0.00 | 93 | 1019.1 |
| 20260902024052 | 76 | 88 | 0.0 | 0.0 | 0.00 | 0.00 | 0.00 | 93 | 1019.1 |
| 20260902023552 | 76 | 88 | 0.0 | 0.0 | 0.00 | 0.00 | 0.00 | 92 | 1019.0 |
| 20260902023101 | 76 | 88 | 0.0 | 0.0 | 0.00 | 0.00 | 0.00 | 92 | 1018.8 |
| 20260902022551 | 76 | 88 | 0.0 | 0.0 | 0.00 | 0.00 | 0.00 | 92 | 1018.8 |
| 20260902022052 | 76 | 88 | 0.0 | 0.0 | 0.00 | 0.00 | 0.00 | 92 | 1018.8 |
| 20260902021558 | 76 | 88 | 0.0 | 0.0 | 0.00 | 0.00 | 0.00 | 92 | 1018.8 |
| 20260902021052 | 76 | 88 | 0.0 | 0.0 | 0.00 | 0.00 | 0.00 | 92 | 1018.8 |
| 20260902020552 | 76 | 88 | 0.0 | 0.0 | 0.00 | 0.00 | 0.00 | 92 | 1018.7 |
| 20260902020052 | 77 | 88 | 0.0 | 0.0 | 0.00 | 0.00 | 0.00 | 92 | 1018.6 |
| 20260902015552 | 77 | 88 | 0.0 | 0.0 | 0.00 | 0.00 | 0.00 | 92 | 1018.5 |
| 20260902015053 | 77 | 88 | 0.0 | 0.0 | 0.00 | 0.00 | 0.00 | 92 | 1018.5 |
| 20260902014551 | 77 | 88 | 0.0 | 0.0 | 0.00 | 0.00 | 0.00 | 92 | 1018.5 |
| 20260902014050 | 77 | 88 | 0.0 | 0.0 | 0.00 | 0.00 | 0.00 | 92 | 1018.5 |
| 20260902013554 | 77 | 88 | 0.0 | 0.0 | 0.00 | 0.00 | 0.00 | 92 | 1018.5 |
| 20260902013051 | 78 | 88 | 0.0 | 0.0 | 0.00 | 0.00 | 0.00 | 91 | 1018.3 |
| 20260902012550 | 78 | 88 | 0.0 | 0.0 | 0.00 | 0.00 | 0.00 | 91 | 1018.4 |
| 20260902012051 | 78 | 88 | 0.0 | 0.0 | 0.00 | 0.00 | 0.00 | 91 | 1018.3 |
| 20260902011550 | 78 | 88 | 0.0 | 0.0 | 0.00 | 0.00 | 0.00 | 90 | 1018.3 |
| 20260902011050 | 78 | 88 | 0.0 | 0.0 | 0.00 | 0.00 | 0.00 | 90 | 1018.3 |
| 20260902010550 | 78 | 88 | 0.0 | 0.0 | 0.00 | 0.00 | 0.00 | 89 | 1018.4 |
| 20260902010050 | 79 | 88 | 0.0 | 0.0 | 0.00 | 0.00 | 0.00 | 89 | 1018.3 |
| 20260902005550 | 79 | 88 | 0.0 | 0.0 | 0.00 | 0.00 | 0.00 | 89 | 1018.4 |
| 20260902005049 | 79 | 88 | 0.0 | 0.0 | 0.00 | 0.00 | 0.00 | 88 | 1018.3 |
| 20260902004551 | 79 | 88 | 0.0 | 0.0 | 0.00 | 0.00 | 0.00 | 87 | 1018.3 |
| 20260902004049 | 79 | 88 | 0.0 | 0.0 | 0.00 | 0.00 | 0.00 | 86 | 1018.2 |
| 20260902003548 | 80 | 88 | 0.0 | 0.0 | 0.00 | 0.00 | 0.00 | 85 | 1018.2 |
| 20260902003049 | 80 | 88 | 0.0 | 0.0 | 0.00 | 0.00 | 0.00 | 83 | 1018.1 |
| 20260902002551 | 80 | 88 | 0.0 | 0.0 | 0.00 | 0.00 | 0.00 | 82 | 1018.2 |
| 20260902002048 | 81 | 88 | 0.0 | 0.0 | 0.00 | 0.00 | 0.00 | 82 | 1018.1 |
| 20260902001601 | 81 | 88 | 0.0 | 0.0 | 0.00 | 0.00 | 0.00 | 82 | 1018.0 |
| 20260902001049 | 81 | 88 | 0.0 | 0.0 | 0.00 | 0.00 | 0.00 | 80 | 1018.2 |
| 20260902000551 | 81 | 88 | 0.0 | 0.0 | 0.00 | 0.00 | 0.00 | 80 | 1018.1 |
| 20260902000048 | 81 | 88 | 0.0 | 0.0 | 0.00 | 0.00 | 0.00 | 80 | 1018.2 |
| 20260901235548 | 82 | 88 | 0.0 | 0.0 | 0.00 | 0.00 | 0.00 | 79 | 1018.0 |
| 20260901235046 | 82 | 88 | 0.0 | 0.0 | 0.00 | 0.00 | 0.00 | 79 | 1018.1 |
| 20260901234556 | 82 | 88 | 0.0 | 0.0 | 0.00 | 0.00 | 0.00 | 79 | 1018.1 |
| 20260901234047 | 82 | 88 | 0.0 | 0.0 | 0.00 | 0.00 | 0.00 | 79 | 1018.1 |
| 20260901233547 | 83 | 88 | 0.0 | 0.0 | 0.00 | 0.00 | 0.00 | 78 | 1018.0 |
| 20260901233056 | 83 | 88 | 0.0 | 0.0 | 0.00 | 0.00 | 0.00 | 76 | 1018.0 |
| 20260901232551 | 84 | 88 | 0.0 | 0.0 | 0.00 | 0.00 | 0.00 | 76 | 1018.1 |
| 20260901232047 | 84 | 88 | 0.0 | 0.0 | 0.00 | 0.00 | 0.00 | 75 | 1018.1 |
| 20260901231546 | 84 | 88 | 0.0 | 0.0 | 0.00 | 0.00 | 0.00 | 71 | 1018.1 |
| 20260901231046 | 85 | 88 | 0.0 | 0.0 | 0.00 | 0.00 | 0.00 | 71 | 1018.1 |
| 20260901230546 | 85 | 88 | 0.0 | 0.0 | 0.00 | 0.00 | 0.00 | 69 | 1018.2 |
| 20260901230046 | 86 | 88 | 0.0 | 0.0 | 0.00 | 0.00 | 0.00 | 66 | 1018.3 |
| 20260901225549 | 86 | 88 | 0.0 | 0.0 | 0.00 | 0.00 | 0.00 | 68 | 1018.2 |
| 20260901225045 | 86 | 88 | 0.0 | 0.0 | 0.00 | 0.00 | 0.00 | 68 | 1018.2 |
| 20260901224545 | 86 | 88 | 0.0 | 0.0 | 0.00 | 0.00 | 0.00 | 68 | 1018.2 |
| 20260901224045 | 87 | 88 | 0.0 | 0.0 | 0.00 | 0.00 | 0.00 | 67 | 1018.1 |
| 20260901223545 | 87 | 88 | 0.0 | 0.0 | 0.00 | 0.00 | 0.00 | 65 | 1018.1 |
| 20260901223045 | 87 | 88 | 0.0 | 0.0 | 0.00 | 0.00 | 0.00 | 64 | 1018.1 |
| 20260901222544 | 87 | 88 | 0.0 | 0.0 | 0.00 | 0.00 | 0.00 | 65 | 1017.9 |
| 20260901222046 | 88 | 88 | 0.0 | 0.0 | 0.00 | 0.00 | 0.00 | 62 | 1018.1 |
| 20260901221545 | 88 | 88 | 0.0 | 0.0 | 0.00 | 0.00 | 0.00 | 62 | 1018.0 |
| 20260901221045 | 88 | 88 | 0.0 | 0.0 | 0.00 | 0.00 | 0.00 | 59 | 1017.8 |
| 20260901220543 | 88 | 88 | 0.0 | 0.0 | 0.00 | 0.00 | 0.00 | 63 | 1017.8 |
| 20260901220045 | 89 | 88 | 0.0 | 0.0 | 0.00 | 0.00 | 0.00 | 62 | 1017.9 |
| 20260901215544 | 88 | 88 | 0.0 | 0.0 | 0.00 | 0.00 | 0.00 | 61 | 1018.0 |
| 20260901215043 | 88 | 88 | 0.0 | 0.0 | 0.00 | 0.00 | 0.00 | 65 | 1018.1 |
| 20260901214544 | 88 | 88 | 0.0 | 0.0 | 0.00 | 0.00 | 0.00 | 62 | 1018.2 |
| 20260901214042 | 87 | 88 | 0.0 | 0.0 | 0.00 | 0.00 | 0.00 | 67 | 1018.2 |
| 20260901213541 | 88 | 88 | 0.0 | 0.0 | 0.00 | 0.00 | 0.00 | 66 | 1018.2 |
| 20260901213059 | 87 | 88 | 0.0 | 0.0 | 0.00 | 0.00 | 0.00 | 66 | 1018.2 |
| 20260901212542 | 87 | 88 | 0.0 | 2.0 | 0.00 | 0.00 | 0.00 | 64 | 1018.1 |
| 20260901212041 | 89 | 88 | 0.0 | 4.0 | 0.00 | 0.00 | 0.00 | 62 | 1018.1 |
| 20260901211542 | 89 | 90 | 2.0 | 4.0 | 0.00 | 0.00 | 0.00 | 61 | 1018.1 |
| 20260901211040 | 89 | 109 | 0.0 | 4.0 | 0.00 | 0.00 | 0.00 | 59 | 1018.1 |
| 20260901210540 | 89 | 96 | 1.0 | 4.0 | 0.00 | 0.00 | 0.00 | 59 | 1018.1 |
| 20260901210040 | 90 | 55 | 0.0 | 4.0 | 0.00 | 0.00 | 0.00 | 61 | 1018.1 |
| 20260901205542 | 90 | 69 | 0.0 | 4.0 | 0.00 | 0.00 | 0.00 | 60 | 1018.1 |
| 20260901205041 | 89 | 57 | 0.0 | 4.0 | 0.00 | 0.00 | 0.00 | 61 | 1018.2 |
| 20260901204539 | 90 | 98 | 1.0 | 4.0 | 0.00 | 0.00 | 0.00 | 62 | 1018.2 |
| 20260901204038 | 90 | 42 | 0.0 | 2.0 | 0.00 | 0.00 | 0.00 | 58 | 1018.2 |
| 20260901203542 | 91 | 97 | 0.0 | 3.0 | 0.00 | 0.00 | 0.00 | 60 | 1018.3 |
| 20260901203101 | 90 | 294 | 1.0 | 3.0 | 0.00 | 0.00 | 0.00 | 61 | 1018.3 |
| 20260901202538 | 91 | 289 | 0.0 | 1.0 | 0.00 | 0.00 | 0.00 | 57 | 1018.4 |
| 20260901202038 | 91 | 289 | 0.0 | 2.0 | 0.00 | 0.00 | 0.00 | 59 | 1018.4 |
| 20260901201537 | 91 | 289 | 0.0 | 3.0 | 0.00 | 0.00 | 0.00 | 56 | 1018.4 |
| 20260901201036 | 91 | 289 | 0.0 | 3.0 | 0.00 | 0.00 | 0.00 | 52 | 1018.5 |
| 20260901200535 | 91 | 289 | 0.0 | 2.0 | 0.00 | 0.00 | 0.00 | 54 | 1018.6 |
| 20260901200040 | 91 | 246 | 1.0 | 2.0 | 0.00 | 0.00 | 0.00 | 54 | 1018.5 |
| 20260901195535 | 91 | 313 | 0.0 | 3.0 | 0.00 | 0.00 | 0.00 | 55 | 1018.5 |
| 20260901195033 | 92 | 289 | 0.0 | 2.0 | 0.00 | 0.00 | 0.00 | 55 | 1018.5 |
| 20260901194538 | 92 | 342 | 0.0 | 0.0 | 0.00 | 0.00 | 0.00 | 54 | 1018.6 |
| 20260901194035 | 92 | 230 | 0.0 | 1.0 | 0.00 | 0.00 | 0.00 | 58 | 1018.6 |
| 20260901193533 | 91 | 124 | 0.0 | 1.0 | 0.00 | 0.00 | 0.00 | 52 | 1018.6 |
| 20260901193033 | 91 | 328 | 0.0 | 3.0 | 0.00 | 0.00 | 0.00 | 60 | 1018.8 |
| 20260901192532 | 91 | 360 | 1.0 | 4.0 | 0.00 | 0.00 | 0.00 | 53 | 1018.8 |
| 20260901192030 | 91 | 263 | 2.0 | 4.0 | 0.00 | 0.00 | 0.00 | 52 | 1019.0 |
| 20260901191531 | 91 | 287 | 1.0 | 3.0 | 0.00 | 0.00 | 0.00 | 57 | 1018.9 |
| 20260901191029 | 90 | 287 | 0.0 | 6.0 | 0.00 | 0.00 | 0.00 | 58 | 1018.8 |
| 20260901190531 | 90 | 233 | 1.0 | 6.0 | 0.00 | 0.00 | 0.00 | 58 | 1019.1 |
| 20260901190031 | 90 | 317 | 0.0 | 2.0 | 0.00 | 0.00 | 0.00 | 56 | 1019.1 |
| 20260901185527 | 91 | 360 | 0.0 | 6.0 | 0.00 | 0.00 | 0.00 | 59 | 1019.1 |
| 20260901185030 | 91 | 278 | 0.0 | 4.0 | 0.00 | 0.00 | 0.00 | 55 | 1019.1 |
| 20260901184526 | 91 | 276 | 0.0 | 2.0 | 0.00 | 0.00 | 0.00 | 59 | 1019.1 |
| 20260901184026 | 91 | 86 | 0.0 | 3.0 | 0.00 | 0.00 | 0.00 | 54 | 1019.3 |
| 20260901183529 | 91 | 288 | 0.0 | 3.0 | 0.00 | 0.00 | 0.00 | 54 | 1019.2 |
| 20260901183023 | 90 | 340 | 0.0 | 3.0 | 0.00 | 0.00 | 0.00 | 58 | 1019.3 |
| 20260901182525 | 90 | 290 | 0.0 | 1.0 | 0.00 | 0.00 | 0.00 | 60 | 1019.4 |
| 20260901182024 | 90 | 17 | 0.0 | 3.0 | 0.00 | 0.00 | 0.00 | 57 | 1019.4 |
| 20260901181526 | 90 | 9 | 0.0 | 3.0 | 0.00 | 0.00 | 0.00 | 59 | 1019.3 |
| 20260901181024 | 90 | 59 | 0.0 | 3.0 | 0.00 | 0.00 | 0.00 | 67 | 1019.5 |
| 20260901180523 | 89 | 273 | 0.0 | 3.0 | 0.00 | 0.00 | 0.00 | 58 | 1019.5 |
| 20260901180021 | 90 | 77 | 1.0 | 2.0 | 0.00 | 0.00 | 0.00 | 63 | 1019.5 |
| 20260901175523 | 90 | 21 | 0.0 | 3.0 | 0.00 | 0.00 | 0.00 | 63 | 1019.5 |
| 20260901175019 | 89 | 26 | 0.0 | 3.0 | 0.00 | 0.00 | 0.00 | 59 | 1019.5 |
| 20260901174519 | 89 | 32 | 1.0 | 2.0 | 0.00 | 0.00 | 0.00 | 61 | 1019.6 |
| 20260901174019 | 89 | 19 | 0.0 | 6.0 | 0.00 | 0.00 | 0.00 | 58 | 1019.6 |
| 20260901173518 | 89 | 136 | 2.0 | 6.0 | 0.00 | 0.00 | 0.00 | 56 | 1019.7 |
| 20260901173018 | 89 | 101 | 1.0 | 3.0 | 0.00 | 0.00 | 0.00 | 62 | 1019.7 |
| 20260901172517 | 90 | 337 | 0.0 | 8.0 | 0.00 | 0.00 | 0.00 | 62 | 1019.8 |
| 20260901172017 | 89 | 227 | 3.0 | 8.0 | 0.00 | 0.00 | 0.00 | 56 | 1019.7 |
| 20260901171516 | 89 | 355 | 0.0 | 4.0 | 0.00 | 0.00 | 0.00 | 59 | 1019.8 |
| 20260901171016 | 89 | 30 | 0.0 | 4.0 | 0.00 | 0.00 | 0.00 | 58 | 1019.9 |
| 20260901170515 | 89 | 24 | 1.0 | 3.0 | 0.00 | 0.00 | 0.00 | 59 | 1020.0 |
| 20260901170015 | 89 | 39 | 0.0 | 2.0 | 0.00 | 0.00 | 0.00 | 58 | 1019.9 |
| 20260901165514 | 89 | 360 | 0.0 | 3.0 | 0.00 | 0.00 | 0.00 | 57 | 1020.0 |
| 20260901165013 | 89 | 329 | 0.0 | 3.0 | 0.00 | 0.00 | 0.00 | 64 | 1019.9 |
| 20260901164513 | 88 | 38 | 0.0 | 2.0 | 0.00 | 0.00 | 0.00 | 60 | 1020.1 |
| 20260901164012 | 88 | 5 | 0.0 | 3.0 | 0.00 | 0.00 | 0.00 | 60 | 1020.2 |
| 20260901163514 | 88 | 105 | 1.0 | 3.0 | 0.00 | 0.00 | 0.00 | 59 | 1020.3 |
| 20260901163014 | 88 | 238 | 0.0 | 2.0 | 0.00 | 0.00 | 0.00 | 58 | 1020.3 |
| 20260901162513 | 88 | 306 | 0.0 | 3.0 | 0.00 | 0.00 | 0.00 | 65 | 1020.4 |
| 20260901162009 | 88 | 32 | 0.0 | 2.0 | 0.00 | 0.00 | 0.00 | 62 | 1020.4 |
| 20260901161509 | 88 | 309 | 0.0 | 4.0 | 0.00 | 0.00 | 0.00 | 63 | 1020.6 |
| 20260901161009 | 88 | 85 | 0.0 | 4.0 | 0.00 | 0.00 | 0.00 | 64 | 1020.5 |
| 20260901160507 | 87 | 80 | 0.0 | 3.0 | 0.00 | 0.00 | 0.00 | 67 | 1020.5 |
| 20260901160010 | 87 | 254 | 1.0 | 3.0 | 0.00 | 0.00 | 0.00 | 66 | 1020.7 |
| 20260901155506 | 87 | 250 | 0.0 | 1.0 | 0.00 | 0.00 | 0.00 | 66 | 1020.8 |
| 20260901155006 | 87 | 40 | 0.0 | 1.0 | 0.00 | 0.00 | 0.00 | 70 | 1020.7 |
| 20260901154506 | 86 | 108 | 0.0 | 3.0 | 0.00 | 0.00 | 0.00 | 65 | 1020.7 |
| 20260901154004 | 86 | 113 | 0.0 | 3.0 | 0.00 | 0.00 | 0.00 | 69 | 1020.8 |
| 20260901153506 | 86 | 287 | 0.0 | 2.0 | 0.00 | 0.00 | 0.00 | 70 | 1020.9 |
| 20260901153004 | 86 | 287 | 0.0 | 2.0 | 0.00 | 0.00 | 0.00 | 68 | 1021.0 |
| 20260901152501 | 85 | 56 | 0.0 | 1.0 | 0.00 | 0.00 | 0.00 | 70 | 1020.9 |
| 20260901152002 | 85 | 32 | 0.0 | 1.0 | 0.00 | 0.00 | 0.00 | 71 | 1021.0 |
| 20260901151600 | 85 | 250 | 0.0 | 3.0 | 0.00 | 0.00 | 0.00 | 73 | 1020.9 |
| 20260901151059 | 85 | 256 | 1.0 | 3.0 | 0.00 | 0.00 | 0.00 | 73 | 1021.0 |
| 20260901150600 | 84 | 49 | 0.0 | 1.0 | 0.00 | 0.00 | 0.00 | 73 | 1021.0 |
| 20260901150057 | 84 | 229 | 0.0 | 2.0 | 0.00 | 0.00 | 0.00 | 76 | 1021.0 |
| 20260901145556 | 84 | 290 | 0.0 | 3.0 | 0.00 | 0.00 | 0.00 | 74 | 1021.1 |
| 20260901145056 | 83 | 229 | 1.0 | 4.0 | 0.00 | 0.00 | 0.00 | 74 | 1021.2 |
| 20260901144554 | 83 | 128 | 0.0 | 4.0 | 0.00 | 0.00 | 0.00 | 75 | 1021.2 |
| 20260901144055 | 83 | 233 | 0.0 | 3.0 | 0.00 | 0.00 | 0.00 | 77 | 1021.2 |
| 20260901143554 | 83 | 271 | 1.0 | 3.0 | 0.00 | 0.00 | 0.00 | 75 | 1021.2 |
| 20260901143053 | 83 | 275 | 0.0 | 3.0 | 0.00 | 0.00 | 0.00 | 74 | 1021.1 |
| 20260901142555 | 83 | 275 | 0.0 | 3.0 | 0.00 | 0.00 | 0.00 | 75 | 1021.1 |
| 20260901142050 | 82 | 270 | 0.0 | 4.0 | 0.00 | 0.00 | 0.00 | 75 | 1021.0 |
| 20260901141553 | 82 | 246 | 1.0 | 4.0 | 0.00 | 0.00 | 0.00 | 78 | 1021.0 |
| 20260901141049 | 81 | 219 | 0.0 | 3.0 | 0.00 | 0.00 | 0.00 | 77 | 1021.1 |
| 20260901140550 | 81 | 229 | 0.0 | 4.0 | 0.00 | 0.00 | 0.00 | 79 | 1020.9 |
| 20260901140048 | 80 | 261 | 1.0 | 4.0 | 0.00 | 0.00 | 0.00 | 79 | 1021.0 |
| 20260901135546 | 80 | 229 | 0.0 | 3.0 | 0.00 | 0.00 | 0.00 | 82 | 1021.0 |
| 20260901135045 | 80 | 300 | 0.0 | 2.0 | 0.00 | 0.00 | 0.00 | 81 | 1021.0 |
| 20260901134544 | 80 | 262 | 0.0 | 3.0 | 0.00 | 0.00 | 0.00 | 82 | 1021.0 |
| 20260901134042 | 79 | 302 | 0.0 | 3.0 | 0.00 | 0.00 | 0.00 | 85 | 1021.0 |
| 20260901133544 | 78 | 229 | 0.0 | 3.0 | 0.00 | 0.00 | 0.00 | 85 | 1021.0 |
| 20260901133040 | 78 | 211 | 0.0 | 4.0 | 0.00 | 0.00 | 0.00 | 86 | 1021.0 |
| 20260901132540 | 77 | 207 | 0.0 | 3.0 | 0.00 | 0.00 | 0.00 | 87 | 1021.0 |
| 20260901132040 | 77 | 225 | 1.0 | 3.0 | 0.00 | 0.00 | 0.00 | 87 | 1021.0 |
| 20260901131540 | 77 | 214 | 0.0 | 3.0 | 0.00 | 0.00 | 0.00 | 87 | 1021.1 |
| 20260901131042 | 77 | 257 | 0.0 | 3.0 | 0.00 | 0.00 | 0.00 | 87 | 1021.0 |
| 20260901130537 | 76 | 251 | 0.0 | 2.0 | 0.00 | 0.00 | 0.00 | 88 | 1021.0 |
| 20260901130036 | 76 | 257 | 0.0 | 2.0 | 0.00 | 0.00 | 0.00 | 90 | 1021.0 |
| 20260901125534 | 75 | 268 | 0.0 | 0.0 | 0.00 | 0.00 | 0.00 | 92 | 1020.9 |
| 20260901125033 | 74 | 270 | 0.0 | 0.0 | 0.00 | 0.00 | 0.00 | 93 | 1020.9 |
| 20260901124530 | 74 | 270 | 0.0 | 0.0 | 0.00 | 0.00 | 0.00 | 94 | 1021.0 |
| 20260901124029 | 73 | 270 | 0.0 | 0.0 | 0.00 | 0.00 | 0.00 | 95 | 1020.9 |
| 20260901123529 | 72 | 270 | 0.0 | 4.0 | 0.00 | 0.00 | 0.00 | 96 | 1020.9 |
| 20260901123036 | 72 | 270 | 0.0 | 4.0 | 0.00 | 0.00 | 0.00 | 96 | 1020.9 |
| 20260901122528 | 71 | 267 | 0.0 | 2.0 | 0.00 | 0.00 | 0.00 | 97 | 1020.9 |
| 20260901122028 | 71 | 223 | 0.0 | 2.0 | 0.00 | 0.00 | 0.00 | 97 | 1020.8 |
| 20260901121532 | 71 | 260 | 0.0 | 0.0 | 0.00 | 0.00 | 0.00 | 97 | 1020.8 |
| 20260901121029 | 70 | 260 | 0.0 | 0.0 | 0.00 | 0.00 | 0.00 | 97 | 1020.7 |
| 20260901120529 | 70 | 260 | 0.0 | 1.0 | 0.00 | 0.00 | 0.00 | 97 | 1020.7 |
| 20260901120027 | 70 | 225 | 0.0 | 0.0 | 0.00 | 0.00 | 0.00 | 97 | 1020.7 |
| 20260901115530 | 70 | 225 | 0.0 | 0.0 | 0.00 | 0.00 | 0.00 | 98 | 1020.7 |
| 20260901115030 | 69 | 225 | 0.0 | 0.0 | 0.00 | 0.00 | 0.00 | 98 | 1020.6 |
| 20260901114529 | 69 | 225 | 0.0 | 0.0 | 0.00 | 0.00 | 0.00 | 97 | 1020.6 |
| 20260901114026 | 69 | 225 | 0.0 | 0.0 | 0.00 | 0.00 | 0.00 | 98 | 1020.6 |
| 20260901113527 | 69 | 225 | 0.0 | 0.0 | 0.00 | 0.00 | 0.00 | 98 | 1020.6 |
| 20260901113026 | 69 | 225 | 0.0 | 0.0 | 0.00 | 0.00 | 0.00 | 98 | 1020.4 |
| 20260901112526 | 69 | 225 | 0.0 | 0.0 | 0.00 | 0.00 | 0.00 | 98 | 1020.5 |
| 20260901112025 | 69 | 225 | 0.0 | 0.0 | 0.00 | 0.00 | 0.00 | 97 | 1020.3 |
| 20260901111525 | 69 | 225 | 0.0 | 0.0 | 0.00 | 0.00 | 0.00 | 97 | 1020.2 |
| 20260901111024 | 69 | 225 | 0.0 | 0.0 | 0.00 | 0.00 | 0.00 | 97 | 1020.3 |
| 20260901110525 | 69 | 225 | 0.0 | 0.0 | 0.00 | 0.00 | 0.00 | 97 | 1020.1 |
| 20260901110024 | 69 | 225 | 0.0 | 0.0 | 0.00 | 0.00 | 0.00 | 97 | 1020.0 |
| 20260901105525 | 69 | 225 | 0.0 | 0.0 | 0.00 | 0.00 | 0.00 | 97 | 1019.9 |
| 20260901105024 | 69 | 225 | 0.0 | 0.0 | 0.00 | 0.00 | 0.00 | 97 | 1019.8 |
| 20260901104530 | 69 | 225 | 0.0 | 0.0 | 0.00 | 0.00 | 0.00 | 97 | 1019.9 |
| 20260901104024 | 69 | 225 | 0.0 | 0.0 | 0.00 | 0.00 | 0.00 | 97 | 1019.8 |
| 20260901103521 | 69 | 225 | 0.0 | 0.0 | 0.00 | 0.00 | 0.00 | 97 | 1019.8 |
| 20260901103021 | 69 | 225 | 0.0 | 0.0 | 0.00 | 0.00 | 0.00 | 97 | 1019.8 |
| 20260901102525 | 69 | 225 | 0.0 | 0.0 | 0.00 | 0.00 | 0.00 | 97 | 1019.8 |
| 20260901102021 | 69 | 225 | 0.0 | 1.0 | 0.00 | 0.00 | 0.00 | 97 | 1019.8 |
| 20260901101521 | 69 | 225 | 0.0 | 1.0 | 0.00 | 0.00 | 0.00 | 97 | 1019.8 |
| 20260901101022 | 69 | 205 | 0.0 | 1.0 | 0.00 | 0.00 | 0.00 | 97 | 1019.8 |
| 20260901100520 | 69 | 205 | 0.0 | 2.0 | 0.00 | 0.00 | 0.00 | 97 | 1019.8 |
| 20260901100020 | 69 | 210 | 0.0 | 2.0 | 0.00 | 0.00 | 0.00 | 97 | 1019.7 |
| 20260901095519 | 69 | 248 | 0.0 | 0.0 | 0.00 | 0.00 | 0.00 | 97 | 1019.7 |
| 20260901095019 | 69 | 248 | 0.0 | 0.0 | 0.00 | 0.00 | 0.00 | 97 | 1019.6 |
| 20260901094518 | 70 | 248 | 0.0 | 0.0 | 0.00 | 0.00 | 0.00 | 97 | 1019.5 |
| 20260901094018 | 70 | 248 | 0.0 | 0.0 | 0.00 | 0.00 | 0.00 | 97 | 1019.6 |
| 20260901093517 | 70 | 248 | 0.0 | 0.0 | 0.00 | 0.00 | 0.00 | 97 | 1019.6 |
| 20260901093017 | 70 | 248 | 0.0 | 0.0 | 0.00 | 0.00 | 0.00 | 97 | 1019.6 |
| 20260901092517 | 70 | 248 | 0.0 | 0.0 | 0.00 | 0.00 | 0.00 | 97 | 1019.7 |
| 20260901092021 | 70 | 213 | 0.0 | 0.0 | 0.00 | 0.00 | 0.00 | 97 | 1019.7 |
| 20260901091519 | 70 | 213 | 0.0 | 0.0 | 0.00 | 0.00 | 0.00 | 97 | 1019.7 |
| 20260901091016 | 70 | 213 | 0.0 | 0.0 | 0.00 | 0.00 | 0.00 | 97 | 1019.6 |
| 20260901090515 | 70 | 213 | 0.0 | 0.0 | 0.00 | 0.00 | 0.00 | 97 | 1019.6 |
| 20260901090018 | 70 | 213 | 0.0 | 0.0 | 0.00 | 0.00 | 0.00 | 97 | 1019.6 |
| 20260901085514 | 70 | 213 | 0.0 | 0.0 | 0.00 | 0.00 | 0.00 | 97 | 1019.5 |
| 20260901085013 | 70 | 213 | 0.0 | 0.0 | 0.00 | 0.00 | 0.00 | 97 | 1019.7 |
| 20260901084513 | 70 | 213 | 0.0 | 0.0 | 0.00 | 0.00 | 0.00 | 97 | 1019.7 |
| 20260901084014 | 70 | 213 | 0.0 | 0.0 | 0.00 | 0.00 | 0.00 | 97 | 1019.6 |
| 20260901083512 | 70 | 213 | 0.0 | 0.0 | 0.00 | 0.00 | 0.00 | 97 | 1019.7 |
| 20260901083017 | 71 | 213 | 0.0 | 0.0 | 0.00 | 0.00 | 0.00 | 97 | 1019.7 |
| 20260901082510 | 71 | 213 | 0.0 | 0.0 | 0.00 | 0.00 | 0.00 | 97 | 1019.7 |
| 20260901082010 | 70 | 213 | 0.0 | 0.0 | 0.00 | 0.00 | 0.00 | 97 | 1019.8 |
| 20260901081511 | 71 | 213 | 0.0 | 0.0 | 0.00 | 0.00 | 0.00 | 97 | 1020.0 |
| 20260901081010 | 71 | 213 | 0.0 | 0.0 | 0.00 | 0.00 | 0.00 | 97 | 1019.9 |
| 20260901080512 | 71 | 213 | 0.0 | 0.0 | 0.00 | 0.00 | 0.00 | 97 | 1020.0 |
| 20260901080010 | 71 | 213 | 0.0 | 0.0 | 0.00 | 0.00 | 0.00 | 97 | 1020.0 |
| 20260901075510 | 71 | 213 | 0.0 | 0.0 | 0.00 | 0.00 | 0.00 | 97 | 1020.1 |
| 20260901075010 | 71 | 213 | 0.0 | 0.0 | 0.00 | 0.00 | 0.00 | 97 | 1020.1 |
| 20260901074509 | 71 | 213 | 0.0 | 0.0 | 0.00 | 0.00 | 0.00 | 97 | 1020.1 |
| 20260901074008 | 71 | 213 | 0.0 | 0.0 | 0.00 | 0.00 | 0.00 | 97 | 1020.0 |
| 20260901073507 | 71 | 213 | 0.0 | 0.0 | 0.00 | 0.00 | 0.00 | 97 | 1019.9 |
| 20260901073008 | 71 | 213 | 0.0 | 0.0 | 0.00 | 0.00 | 0.00 | 97 | 1020.0 |
| 20260901072506 | 71 | 213 | 0.0 | 0.0 | 0.00 | 0.00 | 0.00 | 97 | 1020.1 |
| 20260901072006 | 71 | 213 | 0.0 | 0.0 | 0.00 | 0.00 | 0.00 | 97 | 1020.3 |
| 20260901071004 | 71 | 213 | 0.0 | 0.0 | 0.00 | 0.00 | 0.00 | 97 | 1020.2 |
| 20260901070503 | 71 | 213 | 0.0 | 0.0 | 0.00 | 0.00 | 0.00 | 97 | 1020.3 |
| 20260901070003 | 71 | 213 | 0.0 | 0.0 | 0.00 | 0.00 | 0.00 | 97 | 1020.2 |
| 20260901065503 | 71 | 213 | 0.0 | 0.0 | 0.00 | 0.00 | 0.00 | 97 | 1020.3 |
| 20260901065003 | 71 | 213 | 0.0 | 0.0 | 0.00 | 0.00 | 0.00 | 97 | 1020.3 |
| 20260901064504 | 71 | 213 | 0.0 | 0.0 | 0.00 | 0.00 | 0.00 | 96 | 1020.3 |
| 20260901064005 | 71 | 213 | 0.0 | 0.0 | 0.00 | 0.00 | 0.00 | 96 | 1020.3 |
| 20260901063600 | 71 | 213 | 0.0 | 0.0 | 0.00 | 0.00 | 0.00 | 96 | 1020.3 |
| 20260901063126 | 71 | 213 | 0.0 | 0.0 | 0.00 | 0.00 | 0.00 | 96 | 1020.4 |
| 20260901062601 | 71 | 213 | 0.0 | 0.0 | 0.00 | 0.00 | 0.00 | 97 | 1020.5 |
| 20260901062100 | 71 | 213 | 0.0 | 0.0 | 0.00 | 0.00 | 0.00 | 96 | 1020.6 |
| 20260901061600 | 71 | 213 | 0.0 | 0.0 | 0.00 | 0.00 | 0.00 | 96 | 1020.6 |
| 20260901061059 | 71 | 213 | 0.0 | 0.0 | 0.00 | 0.00 | 0.00 | 97 | 1020.6 |
| 20260901060602 | 71 | 213 | 0.0 | 0.0 | 0.00 | 0.00 | 0.00 | 97 | 1020.6 |
| 20260901060058 | 71 | 213 | 0.0 | 0.0 | 0.00 | 0.00 | 0.00 | 96 | 1020.5 |
| 20260901055558 | 71 | 213 | 0.0 | 0.0 | 0.00 | 0.00 | 0.00 | 96 | 1020.6 |
| 20260901055101 | 71 | 213 | 0.0 | 0.0 | 0.00 | 0.00 | 0.00 | 96 | 1020.6 |
| 20260901054558 | 71 | 213 | 0.0 | 0.0 | 0.00 | 0.00 | 0.00 | 96 | 1020.6 |
| 20260901054057 | 71 | 213 | 0.0 | 0.0 | 0.00 | 0.00 | 0.00 | 96 | 1020.6 |
| 20260901053558 | 71 | 213 | 0.0 | 0.0 | 0.00 | 0.00 | 0.00 | 96 | 1020.6 |
| 20260901053116 | 71 | 213 | 0.0 | 0.0 | 0.00 | 0.00 | 0.00 | 96 | 1020.8 |
| 20260901052556 | 71 | 213 | 0.0 | 0.0 | 0.00 | 0.00 | 0.00 | 96 | 1020.7 |
| 20260901052056 | 71 | 213 | 0.0 | 0.0 | 0.00 | 0.00 | 0.00 | 96 | 1020.8 |
| 20260901051610 | 71 | 213 | 0.0 | 0.0 | 0.00 | 0.00 | 0.00 | 95 | 1020.8 |
| 20260901051057 | 72 | 213 | 0.0 | 0.0 | 0.00 | 0.00 | 0.00 | 95 | 1020.8 |
| 20260901050554 | 72 | 213 | 0.0 | 0.0 | 0.00 | 0.00 | 0.00 | 96 | 1020.8 |
| 20260901050054 | 72 | 213 | 0.0 | 0.0 | 0.00 | 0.00 | 0.00 | 96 | 1020.7 |
| 20260901045556 | 72 | 213 | 0.0 | 0.0 | 0.00 | 0.00 | 0.00 | 96 | 1020.6 |
| 20260901045053 | 72 | 213 | 0.0 | 0.0 | 0.00 | 0.00 | 0.00 | 96 | 1020.5 |
| 20260901044553 | 72 | 213 | 0.0 | 0.0 | 0.00 | 0.00 | 0.00 | 96 | 1020.6 |
| 20260901044052 | 72 | 213 | 0.0 | 0.0 | 0.00 | 0.00 | 0.00 | 95 | 1020.6 |
| 20260901043552 | 72 | 213 | 0.0 | 0.0 | 0.00 | 0.00 | 0.00 | 95 | 1020.6 |
| 20260901043100 | 72 | 213 | 0.0 | 0.0 | 0.00 | 0.00 | 0.00 | 95 | 1020.5 |
| 20260901042553 | 72 | 213 | 0.0 | 0.0 | 0.00 | 0.00 | 0.00 | 95 | 1020.5 |
| 20260901042051 | 72 | 213 | 0.0 | 0.0 | 0.00 | 0.00 | 0.00 | 95 | 1020.6 |
| 20260901041602 | 72 | 213 | 0.0 | 0.0 | 0.00 | 0.00 | 0.00 | 95 | 1020.7 |
| 20260901041052 | 72 | 213 | 0.0 | 0.0 | 0.00 | 0.00 | 0.00 | 95 | 1020.7 |
| 20260901040549 | 72 | 213 | 0.0 | 0.0 | 0.00 | 0.00 | 0.00 | 95 | 1020.7 |
| 20260901040048 | 73 | 213 | 0.0 | 0.0 | 0.00 | 0.00 | 0.00 | 95 | 1020.7 |
| 20260901035548 | 73 | 213 | 0.0 | 0.0 | 0.00 | 0.00 | 0.00 | 95 | 1020.6 |
| 20260901035047 | 73 | 213 | 0.0 | 0.0 | 0.00 | 0.00 | 0.00 | 95 | 1020.5 |
| 20260901034547 | 73 | 213 | 0.0 | 0.0 | 0.00 | 0.00 | 0.00 | 94 | 1020.4 |
| 20260901034046 | 73 | 213 | 0.0 | 0.0 | 0.00 | 0.00 | 0.00 | 94 | 1020.4 |
| 20260901033547 | 73 | 213 | 0.0 | 0.0 | 0.00 | 0.00 | 0.00 | 94 | 1020.4 |
| 20260901033047 | 73 | 213 | 0.0 | 0.0 | 0.00 | 0.00 | 0.00 | 94 | 1020.4 |
| 20260901032550 | 73 | 213 | 0.0 | 0.0 | 0.00 | 0.00 | 0.00 | 94 | 1020.3 |
| 20260901032047 | 73 | 213 | 0.0 | 0.0 | 0.00 | 0.00 | 0.00 | 94 | 1020.3 |